Location: Dagenham
(51.5500°N, 0.1667°E)
Time: 09:41:43
(UTC+00:00)

Daily predictions for brighter satellites

Satellite Brightness Start Highest point End
(mag) Time Altitude Azimuth Time Altitude Azimuth Time Altitude Azimuth
Tsikada Rocket 4.1 20:11:21 10° N 20:17:31 66° ENE 20:23:37 10° SSE
Cosmos 2360 Rocket 3.3 20:18:27 10° NNW 20:23:38 35° NE 20:28:47 10° ESE
Cosmos 2016 Rocket 4.0 20:18:38 10° S 20:24:52 78° E 20:31:04 10° NNE
Cosmos 2173 Rocket 4.5 20:18:47 10° SSW 20:24:55 68° WNW 20:31:11 10° N
Cosmos 1461 3.9 20:23:15 10° SSE 20:26:01 20° ESE 20:28:47 10° ENE
CZ-4B R/B 3.5 20:22:15 10° S 20:27:54 75° WSW 20:33:31 10° NNW
CZ-4C R/B 2.5 20:24:57 10° WSW 20:29:19 64° NW 20:35:02 10° NE
Meteor 2-12 Rocket 4.5 20:23:41 10° N 20:29:49 88° E 20:35:56 10° S
CZ-4B R/B 4.3 20:26:11 10° SE 20:30:27 34° ENE 20:34:49 10° N
Cosmos 1992 Rocket 4.3 20:25:58 10° S 20:30:57 48° ESE 20:35:57 10° NE
ISS -3.8 20:32:32 10° WSW 20:35:53 82° S 20:39:14 10° E
Cosmos 2219 Rocket 3.5 20:31:59 10° NNW 20:36:57 30° NE 20:41:55 10° ESE
Cosmos 1437 Rocket 3.6 20:37:04 10° SSE 20:40:07 27° E 20:43:13 10° NNE
SL-08 R/B 3.3 20:39:19 10° NNE 20:44:10 79° ESE 20:48:54 10° SSW
DEBRIS 3.3 20:42:59 10° WSW 20:45:51 61° SSE 20:53:58 10° E
Cosmos 1626 Rocket 3.6 20:42:00 10° N 20:46:22 71° ENE 20:50:44 10° SSE
Cosmos 1743 4.2 20:44:22 10° NNW 20:46:56 26° W 20:49:29 10° SSW
Cosmos 2098 Rocket 4.4 20:44:22 10° SE 20:48:05 24° E 20:51:29 10° NE
Cosmos 1452 Rocket 4.5 20:43:08 10° SW 20:48:15 53° WNW 20:53:24 10° NNE
NOSS 3-3 (A) 3.7 20:43:44 10° SSW 20:48:55 70° SE 20:55:12 10° NE
Terra 3.0 20:48:03 10° SSW 20:52:28 40° W 20:56:54 10° NNW
Cosmos 2151 3.0 20:50:16 10° N 20:54:22 63° ENE 20:58:09 12° SSE
Cosmos 2322 Rocket 2.6 20:50:07 10° NNW 20:55:41 55° NE 21:00:46 12° SE
Cosmos 1486 Rocket 4.4 20:50:47 10° NNW 20:55:58 54° ENE 21:00:35 13° SE
Helios 1A Rocket 3.9 20:53:08 10° N 20:56:05 37° WNW 20:59:01 10° SW
Cosmos 1302 Rocket 4.4 20:51:52 10° SW 20:57:00 68° WNW 21:02:13 10° NNE
Cosmos 1607 4.2 20:51:56 10° SW 20:58:06 76° NW 21:04:26 10° NE
IRS-1C Rocket 4.4 20:53:40 11° SE 20:58:32 56° ENE 21:03:42 10° N
Cosmos 909 Rocket 4.0 20:53:06 10° SSW 20:59:22 76° SE 21:05:56 10° NE
Cosmos 2061 Rocket 4.0 20:53:42 10° S 20:59:56 88° E 21:06:18 10° N
Cosmos 2082 Rocket 2.5 20:55:22 10° SW 21:01:05 75° WNW 21:06:50 10° NNE
USA 306 2.2 20:59:22 10° W 21:02:22 54° NNW 21:04:21 10° ENE
CZ-4B R/B 2.4 21:09:42 15° SSE 21:12:23 82° ENE 21:15:53 10° NNW
USA 186 2.7 21:11:11 10° SSW 21:13:43 35° W 21:16:19 10° NNW
Okean O Rocket 2.5 21:11:59 10° S 21:16:06 44° W 21:20:15 10° NNW
Cosmos 2228 4.3 21:15:52 10° SW 21:19:43 38° WNW 21:23:36 10° N
Cosmos 1805 2.9 21:17:09 10° N 21:20:23 57° ENE 21:22:21 21° SSE
NOSS 3-3 (C) 3.8 21:15:29 10° SW 21:20:49 90° SE 21:27:19 10° NE
Cosmos 2278 3.8 21:16:03 10° NNW 21:21:47 80° WSW 21:26:23 16° SSE
COSMOS 2428 4.3 21:19:55 10° NNW 21:24:41 26° NE 21:29:26 10° E
Meteor 1-5 Rocket 4.4 21:18:59 10° N 21:24:43 69° ENE 21:29:21 17° SSE
SL-16 R/B 2.5 21:20:40 10° NW 21:26:16 61° WSW 21:30:55 15° S
Okean 1-7 Rocket 3.7 21:23:02 10° N 21:27:29 62° ENE 21:30:35 19° SSE
Cosmos 1544 Rocket 3.7 21:23:23 10° SSW 21:27:43 74° W 21:32:03 10° N
CZ-2C R/B 1.9 21:27:14 26° SSE 21:28:36 67° ENE 21:31:23 10° N
NOSS 3 (A) 4.3 21:28:28 10° NW 21:30:42 59° SW 21:31:48 29° SSE
NOSS 3-4 (A) 3.8 21:25:57 10° NW 21:32:33 80° SW 21:38:39 18° SE
NOSS 3-4 (C) 3.8 21:26:34 10° NW 21:33:12 80° SW 21:39:18 18° SE
Cosmos-2242 4.4 21:34:03 17° ESE 21:35:34 21° E 21:38:42 10° NE
Cosmos 1891 Rocket 4.5 21:30:48 10° S 21:36:54 86° W 21:43:00 10° N
Okean-O 4.2 21:33:17 10° SSW 21:37:08 30° W 21:41:01 10° NNW
Cosmos 2034 Rocket 4.5 21:32:54 17° SSE 21:37:26 45° E 21:43:24 10° NNE
Cosmos 1933 3.5 21:37:08 10° SSW 21:40:54 66° WNW 21:44:43 10° N
Ariane Rocket 3.2 21:38:06 16° S 21:42:09 70° WSW 21:47:13 10° NNW
COSMOS 2406 3.5 21:36:29 10° SW 21:42:14 74° WNW 21:48:00 10° NNE
SPOT 3 Rocket 4.1 21:41:43 13° S 21:46:10 52° W 21:51:12 10° NNW
Nadezhda 4 Rocket 3.9 21:45:30 10° N 21:51:39 89° W 21:56:13 19° S
Cosmos 2333 Rocket 3.0 21:48:47 10° NW 21:54:09 43° WSW 21:58:17 17° S
Helios 1B rocket 3.4 21:55:11 20° ESE 21:56:39 28° ENE 21:59:41 10° N
Cosmos 1763 Rocket 3.8 21:53:12 20° S 21:56:41 50° ESE 22:01:47 10° NNE
Cosmos 1825 Rocket 3.5 21:52:20 10° NNW 21:56:42 84° W 21:59:17 24° S
Cosmos 1470 4.5 21:55:00 10° NNE 21:57:05 16° ENE 21:58:12 14° E
Cosmos 1536 3.7 21:54:26 10° N 21:57:47 32° ENE 21:59:12 24° ESE
Okean 1 3.0 21:56:18 29° S 21:57:58 66° E 22:01:33 10° NNE
Cosmos 1707 3.2 21:59:51 25° E 21:59:52 25° E 22:02:17 10° NE
Cosmos 1461 3.3 21:58:21 10° WSW 22:01:59 55° NW 22:05:37 10° NE
Cosmos 1833 4.4 21:57:58 18° S 22:02:04 52° ESE 22:07:31 10° NE
Cosmos 1953 Rocket 3.6 21:58:25 10° N 22:02:47 68° ENE 22:04:56 28° SSE
Cosmos 44 3.7 21:58:02 10° NW 22:03:28 71° NE 22:06:56 22° SE
Cosmos 990 Rocket 3.9 21:58:41 10° NNW 22:03:53 87° ENE 22:06:54 26° SSE
Cosmos 2360 Rocket 2.6 22:02:21 10° NW 22:07:55 56° WSW 22:11:23 23° S
CZ-4B R/B 4.4 22:05:27 15° SSW 22:09:01 38° W 22:13:34 10° NNW
Cosmos 2322 4.4 22:04:19 10° NNW 22:09:51 48° NE 22:13:47 19° ESE
Cosmos 2195 Rocket 4.5 22:03:37 10° N 22:09:54 87° E 22:13:53 23° S
ISS -3.9 22:09:21 10° W 22:12:43 85° S 22:14:19 28° ESE
USA 290 2.1 22:12:10 29° SSW 22:13:35 85° WNW 22:16:45 10° NNE
BREEZE-M DEB (TANK) 2.2 22:11:43 10° W 22:13:12 30° WSW 22:13:12 30° WSW
Cosmos 2026 Rocket 4.0 22:07:51 10° N 22:14:17 81° E 22:18:17 25° SSE
Cosmos 2058 Rocket 3.5 22:14:25 30° SE 22:16:03 45° E 22:20:12 10° NNE
CZ-4C R/B 4.3 22:14:13 10° WNW 22:18:38 29° N 22:24:09 10° NE
Helios 1A 3.0 22:17:23 10° NNE 22:21:14 53° E 22:22:30 36° SSE
Cosmos 2219 Rocket 2.3 22:15:44 10° NW 22:21:21 68° WSW 22:24:29 27° S
Cosmos 1975 4.1 22:21:07 10° NNE 22:24:15 26° ENE 22:25:24 22° E
Cosmos 2098 Rocket 4.0 22:20:59 11° SSW 22:25:15 44° WNW 22:29:12 10° N
KORONAS-FOTON 4.1 22:25:06 37° ESE 22:25:31 38° E 22:28:43 10° NNE
Cosmos 1076 Rocket 3.9 22:21:48 10° NNW 22:25:59 57° W 22:28:03 27° SSW
USA 306 3.6 22:27:30 10° WNW 22:28:32 19° NW 22:28:32 19° NW
RESURS DK-1 2.9 22:26:57 10° NNW 22:30:49 48° NE 22:32:35 28° ESE
ARIANE 5 R/B 3.4 22:32:16 27° ESE 22:34:15 43° ENE 22:38:29 10° N
ALOS 2 3.6 22:33:58 24° ESE 22:35:56 37° ENE 22:40:00 10° N
Cosmos 2322 Rocket 3.4 22:34:32 10° NW 22:39:29 32° WSW 22:42:34 19° SSW
Cosmos 1354 Rocket 4.5 22:36:11 10° NNW 22:41:14 50° WSW 22:43:43 28° SSW
Cosmos 1766 3.1 22:42:01 10° NNW 22:45:12 54° W 22:45:46 45° SW
Cosmos 372 Rocket 3.9 22:40:28 10° NNW 22:45:37 89° ENE 22:47:53 34° SSE
Cosmos 1271 Rocket 2.9 22:46:13 40° ESE 22:46:25 41° E 22:49:38 10° NNE
Cosmos 1842 2.9 22:47:39 51° ESE 22:47:44 51° E 22:50:49 10° NNE
Cosmos 1726 Rocket 4.5 22:49:27 19° SW 22:51:58 39° WNW 22:55:48 10° N
Meteor 2-9 Rocket 4.3 22:47:59 10° N 22:53:22 67° ENE 22:55:56 32° SSE
Spot 4 4.0 22:51:57 34° SE 22:53:58 66° ENE 22:58:45 10° N
Cosmos 540 Rocket 3.8 22:52:54 17° SW 22:56:52 65° WNW 23:02:01 10° NNE
Cosmos 2237 Rocket 3.1 22:52:50 10° NNW 22:58:18 45° NE 23:02:17 18° ESE
Aureole 1 Rocket 4.2 22:53:45 10° NNW 22:59:23 61° WSW 23:02:46 29° S
BREEZE-M DEB (TANK) 4.4 22:42:47 10° SW 23:00:29 63° SSE 23:04:42 10° ENE
Cosmos 1092 Rocket 4.3 22:55:37 10° NNW 23:01:40 58° W 23:05:07 26° SSW
CZ-2C R/B 3.9 22:58:57 17° ESE 23:02:10 31° ENE 23:06:43 10° N
Cosmos 1980 4.4 22:56:59 10° NNW 23:02:31 50° NE 23:06:13 20° ESE
ARGOS Delta rocket 4.4 22:59:32 10° NNE 23:04:33 51° E 23:06:31 34° SSE
Cosmos 1937 Rocket 3.5 23:02:03 10° NNW 23:07:13 77° ENE 23:09:26 35° SE
Meteor 2-2 Rocket 4.5 23:05:51 24° SSW 23:09:19 68° WNW 23:15:07 10° N
COSMOS 2428 2.7 23:03:52 10° NNW 23:09:35 82° WSW 23:12:10 34° SSE
Geosat 4.2 23:06:28 10° NNE 23:11:28 69° NW 23:15:09 18° SW
NOSS 0 Rocket 3.9 23:05:57 10° NNW 23:12:10 85° ENE 23:15:26 30° SE
Cosmos-2242 3.8 23:10:18 25° SW 23:12:17 43° WNW 23:16:15 10° N
Cosmos 2227 Rocket 4.1 23:11:04 13° ESE 23:12:25 14° E 23:15:09 10° ENE
Meteor 1-11 Rocket 3.9 23:07:30 10° N 23:13:10 64° ENE 23:15:45 32° SE
Cosmos 468 Rocket 4.0 23:10:30 26° SSW 23:13:30 80° WNW 23:18:48 10° NNE
MetOp-A 4.3 23:18:10 30° SE 23:20:17 53° ENE 23:24:49 10° N
Cosmos 1812 Rocket 3.6 23:25:18 45° SSE 23:26:27 66° E 23:30:51 10° NNE
Cosmos 1238 Rocket 4.2 23:25:54 25° ESE 23:26:45 27° E 23:30:25 10° NNE
Helios 1B rocket 3.4 23:29:08 25° WSW 23:29:36 26° W 23:32:37 10° NW
Cosmos 1470 3.1 23:28:05 10° NNW 23:31:12 40° W 23:31:24 39° WSW
USA 234 3.6 23:25:40 10° ENE 23:31:54 45° SE 23:34:29 31° S
Cosmos 1707 4.3 23:31:20 15° W 23:32:07 16° WNW 23:34:02 10° NNW
SeaSat 1 3.7 23:28:37 13° ESE 23:32:37 37° NE 23:37:07 10° NNW
Cosmos 1536 4.3 23:29:55 10° NW 23:32:52 23° W 23:33:43 21° WSW
CZ-2C R/B 3.8 23:27:57 10° NNE 23:33:31 48° E 23:35:48 32° SSE
ACS3 Solar Sail 3.4 23:29:58 10° NE 23:34:22 21° E 23:37:20 15° ESE
Helios 1B 4.5 23:30:28 10° NNE 23:34:44 70° ESE 23:35:46 49° SSE
Meteor 1-27 Rocket 4.2 23:32:34 32° SSE 23:34:54 49° E 23:40:24 10° NNE
NOSS 8 (E) 4.5 23:32:36 10° NW 23:35:29 58° NE 23:35:47 54° ENE
ATLAS 2AS CENTAUR R/B 4.3 23:29:58 10° NW 23:36:07 34° NNE 23:42:13 10° E
Cosmos 2221 2.4 23:35:23 46° SSW 23:36:32 76° WNW 23:40:45 10° N
CZ-2C R/B 4.0 23:35:59 10° N 23:40:24 61° WNW 23:42:14 33° SW
Cosmos 1898 Rocket 4.0 23:35:38 10° NW 23:40:35 46° WSW 23:42:14 35° SSW
Cosmos 2279 Rocket 4.2 23:37:48 27° SSW 23:41:18 65° WNW 23:47:33 10° N
Cosmos 2297 Rocket 2.5 23:43:29 36° SSE 23:45:23 52° ESE 23:50:51 10° NE
Meteor 2-20 4.4 23:46:32 35° S 23:49:16 75° E 23:55:22 10° NNE
ISS -1.6 23:46:14 10° W 23:47:15 17° W 23:47:15 17° W
NOSS 8 (F) 4.1 23:48:41 10° NW 23:51:35 75° NE 23:51:35 75° NE
SAR-Lupe-2 3.9 23:53:11 44° WSW 23:53:13 44° W 23:56:26 10° NNW
Cosmos 2322 4.5 23:48:43 10° NW 23:53:55 37° WSW 23:55:40 30° SW
Meteor 2-10 Rocket 4.3 23:48:39 10° N 23:54:01 50° ENE 23:57:07 25° SE
GP-B 3.0 23:50:26 10° N 23:54:50 83° W 23:56:01 48° S
